When you browse on this site, cookies collect data to enhance your experience and personalize the content and advertising you see.
Visit our Privacy Policy to learn more. By continuing to use the site, you agree to this use of cookies and data.
  • în România
  • Lista ţărilor
  • Pe 7 zile
  • Temperatura apei
  • Hartă satelitară
  • Meteo pe hartă
  • Widget-uri
  • user-avatar
    Intrare

    Meteo pe oră la Odense

    Astăzi, 24 Mai, Vineri

    Timp Temperatura Precipitaţii Vânt Presiune Umiditate
    00:00 +10°C° 0 mm 4 m/s 758 mmHg 86%
    01:00 +8°C° 0 mm 4 m/s 758 mmHg 84%
    02:00 +8°C° 0 mm 4 m/s 758 mmHg 83%
    03:00 +8°C° 0 mm 4 m/s 758 mmHg 82%
    04:00 +8°C° 0 mm 5 m/s 757 mmHg 81%
    05:00 +9°C° 0 mm 5 m/s 757 mmHg 79%
    06:00 +10°C° 0 mm 6 m/s 757 mmHg 77%
    07:00 +11°C° 0 mm 6 m/s 757 mmHg 76%
    08:00 +12°C° 0 mm 7 m/s 757 mmHg 75%
    09:00 +13°C° 0 mm 8 m/s 756 mmHg 74%
    10:00 +15°C° 0 mm 8 m/s 756 mmHg 73%
    11:00 +15°C° 0.1 mm 8 m/s 756 mmHg 72%
    12:00 +15°C° 0.1 mm 8 m/s 756 mmHg 72%
    13:00 +15°C° 0.1 mm 8 m/s 756 mmHg 72%
    14:00 +13°C° 0.2 mm 8 m/s 756 mmHg 77%
    15:00 +12°C° 0.2 mm 8 m/s 756 mmHg 82%
    16:00 +11°C° 0.2 mm 7 m/s 756 mmHg 87%
    17:00 +11°C° 0 mm 7 m/s 756 mmHg 86%
    18:00 +11°C° 0 mm 7 m/s 756 mmHg 84%
    19:00 +11°C° 0 mm 6 m/s 755 mmHg 82%
    20:00 +10°C° 0 mm 6 m/s 756 mmHg 84%
    21:00 +9°C° 0 mm 6 m/s 756 mmHg 87%
    22:00 +8°C° 0 mm 6 m/s 756 mmHg 89%
    23:00 +8°C° 0 mm 6 m/s 756 mmHg 90%

    Mâine, 25 Mai, Sâmbătă

    Timp Temperatura Precipitaţii Vânt Presiune Umiditate
    00:00 +8°C° 0 mm 6 m/s 756 mmHg 91%
    01:00 +8°C° 0 mm 6 m/s 756 mmHg 92%
    02:00 +8°C° 0 mm 6 m/s 756 mmHg 91%
    03:00 +8°C° 0 mm 6 m/s 756 mmHg 91%
    04:00 +8°C° 0 mm 6 m/s 756 mmHg 90%
    05:00 +9°C° 0 mm 6 m/s 756 mmHg 87%
    06:00 +9°C° 0 mm 6 m/s 756 mmHg 84%
    07:00 +10°C° 0 mm 6 m/s 756 mmHg 81%
    08:00 +11°C° 0 mm 6 m/s 757 mmHg 78%
    09:00 +12°C° 0 mm 7 m/s 757 mmHg 74%
    10:00 +15°C° 0 mm 7 m/s 757 mmHg 71%
    11:00 +15°C° 0 mm 7 m/s 757 mmHg 70%
    12:00 +15°C° 0 mm 7 m/s 757 mmHg 70%
    13:00 +16°C° 0 mm 7 m/s 757 mmHg 69%
    14:00 +15°C° 0 mm 7 m/s 757 mmHg 71%
    15:00 +14°C° 0 mm 7 m/s 757 mmHg 73%
    16:00 +12°C° 0 mm 7 m/s 757 mmHg 74%
    17:00 +12°C° 0 mm 7 m/s 757 mmHg 76%
    18:00 +11°C° 0 mm 7 m/s 757 mmHg 78%
    19:00 +11°C° 0 mm 7 m/s 757 mmHg 80%
    20:00 +10°C° 0 mm 7 m/s 757 mmHg 81%
    21:00 +10°C° 0 mm 7 m/s 756 mmHg 82%
    22:00 +9°C° 0 mm 7 m/s 756 mmHg 83%
    23:00 +9°C° 0 mm 7 m/s 756 mmHg 80%

    Poimâine, 26 Mai, Duminică

    Timp Temperatura Precipitaţii Vânt Presiune Umiditate
    00:00 +9°C° 0 mm 7 m/s 756 mmHg 78%
    01:00 +9°C° 0 mm 7 m/s 755 mmHg 76%
    02:00 +9°C° 0.2 mm 7 m/s 755 mmHg 79%
    03:00 +9°C° 0.2 mm 8 m/s 755 mmHg 82%
    04:00 +9°C° 0.2 mm 8 m/s 754 mmHg 86%
    05:00 +9°C° 0.2 mm 8 m/s 754 mmHg 86%
    06:00 +9°C° 0.2 mm 8 m/s 754 mmHg 87%
    07:00 +9°C° 0.2 mm 8 m/s 754 mmHg 87%
    08:00 +9°C° 0.1 mm 7 m/s 754 mmHg 86%
    09:00 +9°C° 0.1 mm 7 m/s 754 mmHg 84%
    10:00 +10°C° 0.1 mm 7 m/s 754 mmHg 83%
    11:00 +10°C° 0 mm 7 m/s 754 mmHg 81%
    12:00 +11°C° 0 mm 7 m/s 754 mmHg 80%
    13:00 +12°C° 0 mm 7 m/s 753 mmHg 78%
    14:00 +13°C° 0 mm 6 m/s 753 mmHg 78%
    15:00 +13°C° 0 mm 5 m/s 753 mmHg 78%
    16:00 +13°C° 0 mm 5 m/s 753 mmHg 79%
    17:00 +13°C° 0.2 mm 4 m/s 753 mmHg 82%
    18:00 +12°C° 0.2 mm 4 m/s 752 mmHg 86%
    19:00 +12°C° 0.2 mm 3 m/s 752 mmHg 90%
    20:00 +12°C° 1.5 mm 3 m/s 752 mmHg 92%
    21:00 +11°C° 1.5 mm 3 m/s 751 mmHg 94%
    22:00 +11°C° 1.5 mm 3 m/s 751 mmHg 97%
    23:00 +12°C° 0.3 mm 4 m/s 750 mmHg 96%

    27 Mai, Luni

    Timp Temperatura Precipitaţii Vânt Presiune Umiditate
    00:00 +12°C° 0.3 mm 4 m/s 750 mmHg 96%
    01:00 +12°C° 0.3 mm 5 m/s 749 mmHg 96%
    02:00 +11°C° 0.2 mm 6 m/s 749 mmHg 95%
    03:00 +11°C° 0.2 mm 6 m/s 748 mmHg 95%
    04:00 +11°C° 0.2 mm 6 m/s 748 mmHg 94%
    05:00 +11°C° 0.1 mm 6 m/s 748 mmHg 94%
    06:00 +11°C° 0.1 mm 6 m/s 748 mmHg 94%
    07:00 +10°C° 0.1 mm 5 m/s 748 mmHg 93%
    08:00 +10°C° 0.1 mm 5 m/s 749 mmHg 91%
    09:00 +9°C° 0.1 mm 5 m/s 749 mmHg 90%
    10:00 +9°C° 0.1 mm 5 m/s 750 mmHg 88%
    11:00 +9°C° 0 mm 5 m/s 750 mmHg 85%
    12:00 +10°C° 0 mm 5 m/s 750 mmHg 81%
    13:00 +10°C° 0 mm 6 m/s 751 mmHg 78%
    14:00 +10°C° 0 mm 6 m/s 751 mmHg 77%
    15:00 +10°C° 0 mm 6 m/s 751 mmHg 76%
    16:00 +10°C° 0 mm 6 m/s 752 mmHg 75%
    17:00 +10°C° 0 mm 6 m/s 752 mmHg 76%
    18:00 +10°C° 0 mm 6 m/s 752 mmHg 78%
    19:00 +10°C° 0 mm 5 m/s 752 mmHg 79%
    20:00 +9°C° 0 mm 5 m/s 752 mmHg 82%
    21:00 +8°C° 0 mm 5 m/s 753 mmHg 85%
    22:00 +8°C° 0 mm 4 m/s 753 mmHg 88%
    23:00 +8°C° 0 mm 4 m/s 753 mmHg 89%

    28 Mai, Marţi

    Timp Temperatura Precipitaţii Vânt Presiune Umiditate
    00:00 +7°C° 0 mm 4 m/s 753 mmHg 91%
    01:00 +7°C° 0 mm 4 m/s 753 mmHg 92%
    02:00 +7°C° 0 mm 4 m/s 753 mmHg 92%
    03:00 +7°C° 0 mm 4 m/s 752 mmHg 92%
    04:00 +7°C° 0 mm 4 m/s 752 mmHg 92%
    05:00 +8°C° 0 mm 5 m/s 752 mmHg 90%
    06:00 +9°C° 0 mm 5 m/s 753 mmHg 87%
    07:00 +10°C° 0 mm 6 m/s 753 mmHg 85%
    08:00 +11°C° 0.1 mm 6 m/s 753 mmHg 83%
    09:00 +13°C° 0.1 mm 6 m/s 753 mmHg 80%
    10:00 +13°C° 0.1 mm 6 m/s 753 mmHg 78%
    11:00 +14°C° 0.5 mm 5 m/s 753 mmHg 77%
    12:00 +14°C° 0.5 mm 5 m/s 753 mmHg 77%
    13:00 +14°C° 0.5 mm 5 m/s 753 mmHg 76%
    14:00 +14°C° 0.1 mm 5 m/s 754 mmHg 75%
    15:00 +14°C° 0.1 mm 5 m/s 754 mmHg 73%
    16:00 +14°C° 0.1 mm 4 m/s 754 mmHg 72%
    17:00 +13°C° 0 mm 4 m/s 754 mmHg 72%
    18:00 +12°C° 0 mm 5 m/s 755 mmHg 73%
    19:00 +10°C° 0 mm 5 m/s 755 mmHg 74%
    20:00 +9°C° 0 mm 5 m/s 755 mmHg 73%
    21:00 +8°C° 0 mm 6 m/s 756 mmHg 72%
    22:00 +7°C° 0 mm 6 m/s 756 mmHg 71%
    23:00 +7°C° 0 mm 6 m/s 756 mmHg 72%

    29 Mai, Miercuri

    Timp Temperatura Precipitaţii Vânt Presiune Umiditate
    00:00 +5°C° 0 mm 6 m/s 756 mmHg 73%
    01:00 +4°C° 0 mm 6 m/s 757 mmHg 74%
    02:00 +4°C° 0 mm 6 m/s 757 mmHg 74%
    03:00 +4°C° 0 mm 6 m/s 757 mmHg 75%
    04:00 +4°C° 0 mm 6 m/s 758 mmHg 75%
    05:00 +5°C° 0 mm 6 m/s 758 mmHg 74%
    06:00 +7°C° 0 mm 6 m/s 758 mmHg 72%
    07:00 +8°C° 0 mm 6 m/s 759 mmHg 71%
    08:00 +9°C° 0 mm 6 m/s 759 mmHg 70%
    09:00 +10°C° 0 mm 6 m/s 759 mmHg 69%
    10:00 +12°C° 0 mm 5 m/s 759 mmHg 69%
    11:00 +11°C° 0 mm 6 m/s 759 mmHg 68%
    12:00 +13°C° 0 mm 6 m/s 759 mmHg 67%
    13:00 +13°C° 0 mm 6 m/s 759 mmHg 66%
    14:00 +13°C° 0.3 mm 6 m/s 759 mmHg 69%
    15:00 +11°C° 0.3 mm 7 m/s 759 mmHg 72%
    16:00 +11°C° 0.3 mm 7 m/s 759 mmHg 75%
    17:00 +10°C° 0.2 mm 7 m/s 759 mmHg 77%
    18:00 +10°C° 0.2 mm 6 m/s 759 mmHg 78%
    19:00 +9°C° 0.2 mm 6 m/s 760 mmHg 79%
    20:00 +8°C° 0 mm 6 m/s 760 mmHg 79%
    21:00 +7°C° 0 mm 6 m/s 760 mmHg 79%
    22:00 +5°C° 0 mm 6 m/s 760 mmHg 79%
    23:00 +5°C° 0 mm 6 m/s 760 mmHg 78%
    Arată mai mult